Regional Weather Roundup
Issued by NWS Newport/Morehead, NC

Current Version | Previous Version | Text Only | Print | Product List | Glossary On
Versions: 1 2 3 4 5 6 7 8 9 10 11 12 13 14 15 16 17 18 19 20 21 22 23 24 25 26 27 28 29 30 31 32 33 34 35 36 37 38 39 40 41 42 43 44 45 46 47 48 49 50
203 ASUS42 KMHX 290525 RWRMHX WEATHER ROUNDUP FOR EASTERN NORTH CAROLINA NATIONAL WEATHER SERVICE NEWPORT/MOREHEAD CITY NC 100 AM EDT THU JUN 29 2017 NOTE: "FAIR" INDICATES FEW OR NO CLOUDS BELOW 12,000 FEET WITH NO SIGNIFICANT WEATHER AND/OR OBSTRUCTIONS TO VISIBILITY NCZ015>017-031-032-045>047-102-103-290600- NORTH COAST CITY SKY/WX TMP DP RH WIND PRES REMARKS EDENTON CLEAR 71 64 80 CALM 30.21F ELIZABETH CITY CLEAR 69 63 81 S6 30.21F KITTY HAWK CLEAR 68 62 79 CALM 30.20F MANTEO CLEAR 66 62 87 CALM 30.22S $$ NCZ045>047-081-094-103-104-290600- CENTRAL COAST CITY SKY/WX TMP DP RH WIND PRES REMARKS FRISCO NOT AVBL $$ NCZ095-097-098-100-101-290600- SOUTHERN COAST CITY SKY/WX TMP DP RH WIND PRES REMARKS BEAUFORT PTCLDY 68 60 75 CALM 30.20S CEDAR ISLAND NOT AVBL JACKSONVILLE PTCLDY 65 63 93 CALM 30.20S PINEY ISLAND MOCLDY N/A N/A N/A E3 30.20S WILMINGTON PTCLDY 66 61 84 CALM 30.20S $$ NCZ011>013-027>030-043-044-078>080-089-090>093-098-290600- COASTAL PLAIN CITY SKY/WX TMP DP RH WIND PRES REMARKS AHOSKIE N/A 61 60 97 CALM 30.21F CLINTON CLEAR 65 61 86 CALM 30.21S ELIZABETHTOWN NOT AVBL GOLDSBORO CLEAR 68 63 84 CALM 30.19S GREENVILLE CLEAR 66 61 82 CALM 30.22S HAVELOCK PTCLDY 66 57 72 CALM 30.21S KENANSVILLE PTCLDY 61 59 94 CALM 30.20F KINSTON CLEAR 65 61 86 CALM 30.21F NEW BERN CLEAR 65 60 84 CALM 30.22S RICHLANDS PTCLDY 62 60 93 CALM 30.21F ROCKY MOUNT CLEAR 63 61 93 CALM 30.20F WASHINGTON N/A N/A N/A N/A CALM 30.21F WHITEVILLE CLEAR 64 61 90 CALM 30.19F $$ AMZ130-135-150-152-154-156-158-170-250-252-270-ANZ085-086-088-633-658-670-290600- MARINE OBSERVATIONS STATION/POSITION TIME TEMP WIND PRES WAVE SWELL AIR SEA DIR/SP/G HT/PER HT/PER (UTC) (F) (DEG/KT/KT) (MB) (FT/S) (FT/S) CHESAPEAKE LIGHT NOT AVBL 64 E VA BEACH 0450 72 73 160/ 6/ 6 1023.5 2/ 5 2/ 5 DUCK 0500 72 74 130/ 8/ 10 1022.5 2 E DUCK NOT AVBL OREGON INLET 0500 71 77 110/ 4/ 5 1022.9 13E OREGON INLT 0448 76 N/A 2/ 5 2/ 5 HATTERAS CG 0500 73 79 80/ 3/ 4 1022.6 DIAMOND BUOY 0450 79 83 120/ 2/ 6 1022.6 2/ 6 2/ 6 CAPE LOOKOUT 0500 78 40/ 4/ 5 1022.2 BEAUFORT LAB 0500 73 78 10/ 2/ 2 1021.9 30 SE NEW RVR IN 0508 78 80 70/ 4/ 6 1022.2 30 SE NEW RVR IN 0513 80 N/A 2/ 6 27 SE WRIGHTSVLE 0508 79 80 90/ 6/ 8 1021.9 5 SE WRIGHTSVLE 0508 78 79 140/ 6/ 8 1021.9 225 S CAPE HAT 0450 79 80 80/ 12/ 14 1020.4 3/ 5 2/ 8 41 SE CHARLESTON 0510 80 81 90/ 12/ 16 1021.0 $$

USA.gov is the U.S. government's official web portal to all federal, state and local government web resources and services.